User: anonymous   Login
Location: ???? ??????? ????
(31.2176°N, 31.6797°E)
Time: 16:42:15
(UTC+00:00)
Language:

Cosmos 967 Rocket - Orbit

View from above orbital plane
View from above orbital plane
View from above satellite
View from above satellite

Ground track
Ground track

The orbit data is extracted from the following two-line orbital elements,

1 10513U 77116B   21016.79692539 -.00000036  00000-0  44883-4 0  9993
2 10513  65.8335 111.8912 0017713 124.9729  12.2019 13.78561660168236
Epoch (UTC): 16 January 2021 19:07:34
Eccentricity: 0.0017713
inclination: 65.8335°
perigee height: 956 km
apogee height: 982 km
right ascension of ascending node: 111.8912°
argument of perigee: 124.9729°
revolutions per day: 13.78561660
mean anomaly at epoch: 12.2019°
orbit number at epoch: 16823

The dashed part of the orbit path shows where the satellite is in the earth's shadow,  

DLR